Vorticity
11 11 11 11 11 11 11 12 12 12 12 12 12 13 13 14 14 14 15 16 15 14 13 13 12 11 10 10 8 7 7 7 8 9 10 10 10 10 10 10 10 11 12 12 12 12 13 13 13 13 13 14 14 14 14 15 15 15 14 15 15 10 3 -2 -2 2 7 13 13
11 11 11 11 11 11 12 12 13 13 13 14 14 14 14 15 15 15 16 16 16 16 15 14 14 13 12 10 9 8 8 9 10 10 10 9 8 9 9 10 10 11 12 12 12 13 14 14 14 14 14 14 14 14 13 12 11 10 10 13 14 9 1 -4 -2 5 12 16 16
10 10 10 11 12 12 13 13 14 14 14 15 15 16 16 17 17 18 18 17 17 17 17 16 16 15 13 10 10 10 10 11 11 10 9 9 8 8 9 10 11 12 12 12 13 13 14 15 14 14 13 13 12 12 11 9 8 8 8 10 11 9 6 4 8 13 15 15 15
10 10 10 11 12 13 14 14 15 16 17 18 18 18 18 18 19 19 19 19 19 20 19 18 17 16 15 13 12 11 10 10 10 10 10 10 10 10 11 12 12 12 12 13 13 13 13 12 11 11 10 10 9 8 8 9 9 9 10 12 13 14 15 16 18 17 15 13 12
9 10 11 12 13 14 15 16 17 18 19 19 19 18 18 18 19 19 20 20 21 21 20 19 18 17 16 14 12 11 10 10 10 11 11 11 11 11 11 11 11 11 10 10 10 9 9 8 8 7 7 8 8 8 9 10 10 11 13 14 14 15 16 16 15 13 11 8 7
10 11 12 13 14 15 16 17 17 17 18 17 16 16 17 17 18 19 20 20 21 20 20 18 18 16 15 13 12 11 11 10 10 11 11 11 11 10 10 9 9 8 8 7 7 6 6 6 6 7 7 8 9 10 11 11 11 12 12 12 12 11 11 11 10 9 7 5 4
11 12 13 14 14 15 15 16 14 14 13 12 13 14 15 16 16 16 17 18 17 16 15 15 14 13 13 12 12 11 11 10 10 10 10 10 9 9 8 8 7 7 7 6 6 5 5 5 6 7 8 9 9 10 10 9 9 9 8 8 8 8 8 9 9 8 8 7 6
12 13 13 13 13 13 13 13 12 11 11 11 12 12 12 12 12 12 12 12 12 12 12 11 11 11 11 11 10 10 10 9 8 7 7 7 7 7 7 7 7 6 6 6 6 6 7 7 7 8 8 7 7 7 6 6 5 5 6 5 6 7 9 9 10 11 12 11 10
14 15 14 14 13 13 12 11 10 10 10 11 10 10 10 10 10 10 10 10 10 10 10 10 9 9 9 8 8 7 7 6 6 6 6 5 6 6 6 7 6 6 6 6 7 7 7 7 7 7 6 5 5 4 4 5 5 6 7 7 8 9 10 11 11 12 12 13 12
16 16 15 15 15 14 12 11 11 10 10 9 9 8 8 8 8 8 7 7 7 7 7 7 7 6 6 6 5 5 5 5 5 5 6 6 6 6 5 6 6 6 6 6 6 6 5 5 5 5 5 6 6 6 6 7 8 9 10 10 10 10 11 12 12 12 12 12 12
16 15 14 13 13 12 11 10 10 9 8 7 7 7 7 7 6 6 6 5 6 6 5 5 5 5 5 4 4 5 5 5 6 6 6 6 6 6 6 5 5 5 5 5 4 4 4 5 5 6 7 8 8 8 9 10 11 11 11 12 12 11 11 11 11 11 11 11 11
14 13 12 11 10 10 9 8 7 7 6 6 6 5 5 5 5 5 5 5 5 5 4 4 4 5 5 5 5 5 5 6 6 6 6 6 6 6 6 5 5 5 5 5 6 6 7 8 8 9 9 10 10 10 10 11 11 12 11 11 11 11 11 10 11 11 11 11 11
10 10 9 9 8 8 7 7 6 6 6 5 5 5 5 5 5 5 5 5 5 5 5 5 5 5 5 6 6 6 6 6 6 6 6 5 5 5 6 6 6 6 7 7 8 9 10 10 10 10 10 10 11 11 11 11 11 11 11 10 10 10 10 10 10 10 11 11 11
8 8 8 8 7 7 7 6 6 6 6 5 5 5 5 5 5 5 5 5 5 5 5 5 6 6 6 6 6 6 6 6 6 6 6 6 6 6 7 7 8 8 9 9 10 11 11 11 11 11 11 11 11 11 11 11 11 10 10 10 10 10 10 10 10 10 11 11 12
9 9 8 8 7 7 7 6 6 6 6 6 6 6 6 5 5 6 6 6 6 6 6 6 6 6 6 7 7 7 6 6 6 6 6 7 7 8 9 9 10 10 10 11 11 11 12 11 11 11 11 11 10 10 10 10 10 10 10 10 10 10 10 10 10 11 11 12 12
9 9 8 8 7 7 7 7 6 6 6 6 6 6 6 6 5 5 6 6 6 6 6 6 6 6 6 7 7 7 7 7 7 7 8 8 9 10 10 11 11 11 11 11 11 12 11 11 11 11 10 10 10 10 10 10 10 10 10 10 10 10 10 10 11 11 12 12 13
9 8 8 7 7 7 7 6 6 6 6 6 6 5 5 5 5 5 6 6 5 6 6 6 6 6 6 7 7 7 8 8 9 9 10 10 10 11 11 11 12 12 11 11 11 11 11 10 10 10 10 10 10 10 10 10 10 10 10 10 10 11 11 11 11 12 12 13 13
8 8 7 7 7 7 6 6 6 6 5 5 5 5 5 5 5 5 5 5 5 5 6 6 6 7 7 8 8 9 9 10 10 11 11 11 11 11 11 11 11 11 11 11 10 10 10 10 10 10 10 10 10 10 10 10 10 10 10 10 11 11 11 12 12 12 13 13 13
7 7 7 7 6 6 6 5 5 5 5 5 4 4 5 5 5 5 5 5 6 6 6 7 7 8 9 9 10 10 11 11 11 11 11 11 11 11 11 11 10 10 10 10 10 10 10 10 9 9 10 10 10 10 10 10 10 10 11 11 11 12 12 12 13 13 13 12 11
7 7 6 6 5 5 5 4 4 4 4 4 4 4 4 4 5 5 5 6 6 7 7 8 9 10 10 11 11 11 11 11 11 11 11 11 10 10 10 10 10 10 10 10 10 10 9 9 10 10 10 10 10 10 10 10 11 11 11 11 12 12 12 12 12 12 12 11 9
6 6 5 5 4 4 4 4 4 4 4 4 5 5 5 5 5 6 6 6 7 8 9 10 10 11 11 11 11 11 11 11 11 10 10 10 10 10 10 10 9 9 9 9 9 9 9 10 10 10 10 10 10 10 10 10 11 11 11 12 12 12 12 12 11 10 10 8 7
6 5 4 4 4 4 4 4 4 4 5 5 5 5 5 6 6 6 7 7 8 9 10 11 11 11 11 11 11 11 11 11 10 10 10 10 10 10 9 9 9 9 9 10 10 10 10 10 10 10 10 10 10 10 10 11 11 11 11 12 12 12 11 11 10 9 7 6 6
5 4 3 3 3 3 4 4 4 5 5 6 6 6 6 6 6 7 7 8 9 10 11 11 11 12 11 11 11 10 10 10 10 10 10 10 9 9 9 9 9 10 10 10 9 9 9 9 10 10 10 10 10 10 11 11 11 11 11 12 11 11 10 9 8 7 6 5 5
4 3 3 2 3 3 4 4 5 5 6 6 6 6 6 6 7 7 8 9 10 10 11 11 12 12 11 11 11 10 10 10 10 10 10 10 9 9 9 9 9 10 9 9 9 9 9 9 9 10 10 10 10 10 11 11 11 11 11 10 10 9 8 7 6 6 5 5 5
3 3 2 2 3 3 4 5 5 6 6 6 6 6 6 6 7 8 8 10 10 11 11 11 11 11 11 11 10 10 10 10 9 9 9 9 9 9 9 9 9 9 9 9 9 9 9 10 10 10 10 10 10 11 11 11 11 11 10 10 8 7 7 6 6 6 5 5 6
3 2 2 2 3 3 4 5 6 6 6 6 6 6 6 7 7 8 9 10 11 11 11 11 11 11 11 10 10 10 10 10 9 9 8 8 8 9 9 9 9 9 9 9 9 9 10 10 10 10 10 10 10 11 11 11 10 10 9 8 7 6 6 5 5 6 6 6 6
2 2 2 3 3 4 5 5 6 6 6 6 6 6 7 7 8 9 10 11 11 11 11 11 11 10 10 10 10 10 9 9 9 9 9 8 8 8 8 9 8 8 8 8 9 9 10 10 11 11 11 11 11 10 10 10 9 8 8 7 6 6 6 5 5 6 6 7 7
2 2 2 2 3 4 5 5 6 6 6 6 6 6 7 8 9 10 10 11 10 10 11 11 10 10 9 10 10 9 9 9 9 9 9 8 8 8 8 8 8 8 8 8 9 10 10 11 11 11 11 11 10 10 9 8 8 7 7 6 6 6 6 6 6 6 6 7 7
2 2 2 3 3 4 5 6 6 6 6 6 6 7 7 8 10 10 10 10 10 11 10 10 9 9 10 10 9 9 9 9 9 9 8 8 8 8 8 8 8 8 9 9 10 10 11 11 11 11 11 10 10 9 8 8 7 7 6 6 6 6 6 6 6 7 7 7 8
2 2 2 3 3 4 5 6 6 6 6 6 6 7 8 9 10 10 11 11 11 10 10 9 9 9 9 9 9 9 9 9 9 9 8 8 8 8 8 8 8 9 9 10 10 10 11 11 10 10 10 9 9 8 8 7 7 6 6 6 6 6 6 6 7 7 8 8 8
2 2 2 3 4 5 6 6 6 6 6 6 7 8 9 10 10 11 11 11 10 10 9 9 9 9 9 9 9 9 9 9 9 9 9 8 8 8 8 8 9 9 9 10 10 10 10 10 10 10 9 8 8 8 7 7 7 6 6 6 6 6 6 7 7 8 8 9 8
3 3 3 3 4 5 6 6 6 6 6 6 7 8 9 10 11 11 11 10 10 9 9 9 9 9 9 9 9 9 9 9 9 9 9 9 8 8 8 9 9 9 9 9 10 10 10 10 10 9 8 8 7 7 7 7 6 6 6 6 6 7 7 8 8 9 9 9 8
3 3 3 3 4 5 6 6 6 6 6 7 8 9 10 10 10 10 10 10 10 9 9 9 9 9 9 9 9 9 9 9 9 8 8 9 8 8 8 9 9 8 8 9 9 10 10 10 9 9 8 7 7 7 7 7 7 6 6 7 7 7 8 8 9 9 8 8 8
3 3 3 4 5 5 6 6 6 6 6 7 8 9 10 10 10 10 10 10 9 9 9 9 9 9 9 9 9 8 8 9 8 8 8 8 8 8 8 8 8 8 8 9 9 10 10 10 9 8 8 7 7 7 7 7 7 7 7 7 7 8 9 9 9 9 8 8 8
3 3 3 4 5 6 6 6 6 6 7 7 8 9 10 10 10 10 10 9 9 9 9 9 9 9 9 9 9 8 8 8 8 8 8 8 8 8 8 8 8 8 9 9 9 9 9 9 8 8 7 7 7 7 7 7 7 7 7 7 8 8 9 9 9 8 8 7 7
4 4 4 5 5 6 6 6 6 6 7 8 9 9 10 10 10 10 9 9 8 9 9 8 8 9 9 9 9 9 9 8 8 8 8 8 8 8 8 8 8 9 9 9 9 9 9 8 8 8 7 7 7 7 7 7 7 7 7 8 8 9 9 8 8 8 7 7 7
4 4 4 5 6 6 6 6 6 6 7 8 9 10 10 10 10 10 9 9 9 9 9 8 9 9 9 8 8 9 9 9 8 8 8 9 9 9 8 8 9 9 9 9 9 8 8 8 8 8 7 7 7 7 7 7 7 7 8 9 9 9 8 8 8 7 7 7 7
4 4 5 5 6 6 6 6 6 7 7 8 9 10 10 10 10 9 9 9 9 9 8 9 9 9 9 9 8 8 9 9 9 8 8 9 9 9 9 9 9 9 9 9 8 8 8 8 8 8 7 7 7 7 7 7 7 8 8 9 9 9 8 8 8 7 7 7 7
4 5 5 6 6 6 6 6 6 7 8 8 9 10 10 10 10 9 9 10 9 9 9 9 9 9 9 8 8 8 9 9 9 9 9 9 9 9 9 9 9 9 9 8 8 7 7 8 8 8 8 7 7 7 7 7 7 8 9 9 8 8 8 8 8 8 7 8 8
4 5 5 6 6 6 6 6 6 7 8 8 9 10 10 10 10 9 9 9 10 9 9 9 9 9 8 9 9 8 8 9 9 9 9 9 9 10 10 10 9 8 8 8 7 7 7 8 8 8 8 7 7 7 7 8 8 8 9 9 8 8 8 8 8 8 8 8 9
5 5 5 6 6 6 6 6 7 7 8 9 10 10 10 10 9 9 9 9 9 9 9 9 9 9 9 9 9 8 8 8 9 9 9 9 10 10 10 10 8 8 8 8 7 7 8 8 8 8 7 7 7 8 8 8 8 8 8 8 8 8 7 7 8 8 9 9 9
Height
3127 3127 3127 3127 3127 3126 3126 3126 3126 3126 3126 3125 3125 3125 3125 3125 3124 3124 3124 3124 3123 3123 3123 3123 3123 3124 3124 3124 3125 3125 3125 3125 3125 3125 3125 3124 3124 3123 3123 3122 3122 3121 3121 3120 3120 3119 3118 3118 3117 3116 3115 3115 3114 3113 3113 3112 3111 3110 3109 3108 3107 3105 3105 3105 3103 3102 3101 3100 3099
3126 3126 3126 3125 3125 3125 3125 3125 3125 3125 3124 3124 3124 3124 3124 3123 3123 3123 3123 3122 3122 3122 3122 3122 3123 3123 3123 3123 3124 3124 3124 3124 3124 3124 3123 3123 3122 3122 3121 3121 3120 3120 3119 3119 3118 3117 3117 3116 3115 3115 3114 3113 3113 3112 3111 3110 3109 3108 3107 3106 3105 3105 3104 3103 3101 3100 3099 3097 3096
3125 3125 3125 3124 3124 3124 3124 3123 3123 3123 3123 3123 3123 3123 3122 3122 3122 3122 3122 3122 3121 3121 3122 3122 3122 3122 3122 3123 3123 3123 3123 3123 3123 3122 3122 3121 3121 3120 3120 3119 3119 3118 3118 3117 3117 3116 3115 3115 3114 3113 3112 3112 3111 3110 3109 3108 3107 3106 3105 3104 3104 3103 3102 3100 3099 3098 3096 3095 3094
3123 3123 3123 3123 3123 3123 3122 3122 3122 3122 3122 3122 3122 3121 3121 3121 3121 3121 3121 3121 3121 3121 3121 3121 3121 3122 3122 3122 3122 3122 3122 3122 3121 3121 3120 3120 3119 3119 3118 3118 3117 3117 3116 3115 3115 3114 3114 3113 3112 3111 3111 3110 3109 3108 3107 3106 3105 3104 3103 3102 3101 3100 3099 3098 3096 3095 3094 3092 3091
3122 3122 3122 3122 3122 3121 3121 3121 3121 3121 3121 3121 3121 3120 3120 3120 3120 3120 3120 3120 3120 3120 3120 3120 3121 3121 3121 3121 3121 3121 3121 3120 3120 3120 3119 3119 3118 3118 3117 3116 3115 3115 3115 3114 3113 3113 3112 3111 3111 3110 3109 3108 3107 3106 3105 3104 3103 3102 3101 3100 3099 3097 3096 3095 3094 3092 3091 3090 3088
3121 3121 3121 3121 3121 3120 3120 3120 3120 3120 3120 3120 3120 3120 3120 3120 3120 3120 3120 3120 3120 3120 3120 3120 3120 3120 3120 3120 3120 3120 3120 3119 3119 3118 3118 3118 3117 3116 3115 3115 3114 3114 3113 3112 3112 3111 3110 3110 3109 3108 3107 3106 3105 3104 3103 3102 3101 3100 3099 3097 3096 3095 3094 3092 3091 3090 3088 3087 3085
3120 3120 3120 3120 3120 3120 3120 3120 3119 3119 3119 3119 3119 3119 3119 3119 3119 3119 3119 3119 3119 3119 3119 3120 3120 3120 3120 3120 3120 3119 3119 3118 3118 3117 3117 3116 3115 3115 3114 3114 3113 3112 3111 3111 3110 3110 3109 3108 3107 3106 3105 3105 3103 3102 3101 3100 3099 3098 3096 3095 3094 3092 3091 3090 3088 3087 3085 3084 3083
3119 3119 3119 3119 3119 3119 3119 3119 3119 3118 3118 3118 3118 3118 3118 3118 3118 3118 3119 3119 3119 3119 3119 3119 3119 3119 3119 3119 3119 3118 3118 3117 3116 3116 3115 3115 3115 3114 3113 3112 3111 3111 3110 3109 3109 3108 3107 3106 3105 3105 3104 3102 3101 3100 3099 3098 3096 3095 3094 3093 3091 3090 3089 3087 3086 3085 3083 3082 3080
3118 3118 3118 3118 3118 3118 3118 3118 3118 3118 3118 3118 3118 3118 3118 3118 3118 3118 3118 3118 3118 3118 3118 3118 3118 3118 3118 3118 3117 3117 3116 3116 3115 3115 3115 3114 3113 3113 3112 3111 3110 3110 3109 3108 3107 3106 3105 3104 3103 3102 3101 3100 3099 3098 3097 3095 3094 3093 3092 3090 3089 3088 3086 3085 3084 3082 3081 3080 3078
3117 3117 3117 3117 3117 3117 3117 3117 3117 3117 3117 3117 3117 3117 3117 3117 3118 3118 3118 3118 3118 3118 3118 3118 3117 3117 3117 3116 3116 3115 3115 3115 3114 3113 3112 3112 3111 3111 3110 3110 3109 3108 3107 3106 3105 3105 3104 3102 3101 3100 3099 3098 3097 3095 3094 3093 3092 3091 3090 3088 3087 3086 3085 3083 3082 3080 3079 3077 3076
3116 3116 3117 3117 3117 3117 3117 3117 3117 3117 3117 3117 3117 3117 3117 3117 3117 3117 3117 3117 3117 3117 3117 3117 3116 3116 3116 3115 3115 3114 3114 3113 3113 3112 3111 3110 3110 3109 3109 3108 3107 3106 3105 3105 3104 3102 3101 3100 3099 3098 3097 3096 3095 3094 3092 3091 3090 3089 3087 3086 3085 3083 3082 3081 3080 3078 3077 3075 3074
3116 3116 3116 3116 3116 3116 3116 3116 3116 3116 3117 3117 3117 3117 3117 3117 3117 3117 3117 3117 3117 3116 3116 3116 3115 3115 3115 3114 3114 3113 3113 3112 3111 3111 3110 3109 3109 3108 3107 3106 3105 3104 3104 3103 3101 3100 3100 3098 3097 3096 3095 3094 3093 3092 3090 3089 3088 3087 3085 3084 3082 3081 3080 3078 3077 3076 3075 3073 3071
3115 3115 3115 3116 3116 3116 3116 3116 3116 3116 3116 3116 3116 3116 3116 3116 3116 3116 3116 3116 3116 3115 3115 3115 3114 3114 3114 3113 3113 3112 3111 3111 3110 3110 3109 3108 3107 3106 3105 3105 3104 3103 3102 3101 3100 3099 3098 3097 3095 3095 3093 3092 3091 3090 3089 3087 3086 3085 3083 3082 3080 3079 3078 3076 3075 3074 3072 3071 3069
3115 3115 3115 3115 3115 3115 3115 3115 3116 3116 3116 3116 3116 3116 3116 3116 3116 3115 3115 3115 3115 3115 3114 3114 3113 3113 3112 3112 3111 3111 3110 3110 3109 3108 3107 3106 3105 3105 3104 3103 3102 3101 3100 3099 3098 3097 3096 3095 3094 3093 3092 3090 3089 3088 3086 3085 3084 3082 3081 3080 3078 3077 3075 3074 3073 3071 3070 3069 3067
3114 3115 3115 3115 3115 3115 3115 3115 3115 3115 3115 3115 3115 3115 3115 3115 3115 3115 3115 3114 3114 3114 3113 3113 3112 3112 3111 3110 3110 3110 3109 3108 3107 3106 3105 3105 3104 3103 3102 3101 3100 3100 3099 3098 3096 3095 3095 3093 3092 3091 3090 3088 3087 3086 3085 3083 3082 3080 3079 3078 3076 3075 3074 3072 3071 3070 3068 3067 3065
3114 3114 3114 3114 3114 3115 3115 3115 3115 3115 3115 3115 3115 3115 3115 3114 3114 3114 3114 3113 3113 3112 3112 3111 3111 3110 3110 3109 3109 3108 3107 3106 3105 3105 3104 3103 3102 3101 3100 3100 3099 3098 3097 3096 3095 3094 3093 3091 3090 3089 3088 3086 3085 3084 3083 3081 3080 3079 3077 3076 3075 3073 3072 3070 3069 3068 3066 3065 3063
3113 3114 3114 3114 3114 3114 3114 3114 3114 3114 3114 3114 3114 3114 3114 3114 3113 3113 3113 3112 3112 3111 3111 3110 3110 3109 3109 3108 3107 3107 3106 3105 3104 3103 3103 3102 3101 3100 3099 3098 3097 3096 3095 3094 3093 3092 3091 3090 3088 3087 3086 3085 3084 3082 3081 3080 3078 3077 3076 3074 3073 3071 3070 3069 3067 3065 3064 3062 3061
3113 3113 3113 3113 3114 3114 3114 3114 3114 3114 3114 3114 3114 3113 3113 3113 3112 3112 3112 3111 3111 3110 3110 3109 3109 3108 3107 3107 3106 3105 3105 3104 3103 3102 3101 3100 3099 3099 3098 3097 3096 3095 3094 3093 3091 3090 3089 3088 3087 3085 3084 3083 3082 3080 3079 3078 3077 3075 3074 3072 3071 3070 3068 3066 3065 3063 3062 3060 3059
3113 3113 3113 3113 3113 3113 3113 3113 3113 3113 3113 3113 3113 3113 3112 3112 3112 3111 3111 3110 3110 3110 3109 3108 3108 3107 3106 3105 3105 3104 3103 3102 3101 3101 3100 3099 3098 3097 3096 3095 3094 3093 3092 3091 3090 3089 3088 3086 3085 3084 3083 3081 3080 3079 3077 3076 3075 3073 3072 3070 3069 3067 3066 3064 3063 3061 3060 3058 3057
3112 3112 3113 3113 3113 3113 3113 3113 3113 3113 3113 3113 3112 3112 3112 3111 3111 3111 3110 3110 3109 3108 3108 3107 3106 3106 3105 3104 3103 3102 3101 3101 3100 3099 3098 3097 3096 3095 3095 3094 3093 3092 3090 3089 3088 3087 3086 3085 3084 3082 3081 3080 3078 3077 3075 3074 3073 3071 3070 3068 3067 3065 3064 3062 3061 3060 3058 3057 3055
3112 3112 3112 3112 3112 3112 3112 3112 3112 3112 3112 3112 3112 3111 3111 3110 3110 3110 3109 3109 3108 3107 3106 3106 3105 3104 3104 3103 3102 3101 3100 3099 3098 3098 3097 3096 3095 3094 3093 3092 3091 3090 3089 3088 3086 3085 3084 3083 3082 3080 3079 3078 3076 3075 3074 3072 3071 3069 3068 3066 3065 3064 3062 3060 3059 3058 3056 3055 3053
3111 3112 3112 3112 3112 3112 3112 3112 3112 3111 3111 3111 3111 3110 3110 3110 3109 3109 3108 3107 3106 3106 3105 3105 3104 3103 3102 3101 3100 3100 3099 3098 3097 3096 3095 3094 3093 3092 3091 3090 3090 3088 3087 3086 3085 3084 3083 3081 3080 3079 3077 3076 3075 3073 3072 3070 3069 3067 3066 3065 3063 3062 3060 3059 3057 3056 3054 3053 3051
3111 3111 3111 3111 3111 3111 3111 3111 3111 3111 3110 3110 3110 3110 3109 3109 3108 3107 3107 3106 3105 3105 3104 3103 3102 3101 3100 3100 3099 3098 3097 3096 3095 3094 3093 3093 3092 3091 3090 3089 3088 3087 3085 3084 3083 3082 3081 3080 3078 3077 3075 3074 3073 3071 3070 3069 3067 3066 3064 3063 3061 3060 3059 3057 3055 3054 3052 3051 3049
3110 3111 3111 3111 3111 3111 3110 3110 3110 3110 3110 3109 3109 3109 3108 3108 3107 3106 3105 3105 3104 3103 3102 3101 3100 3100 3099 3098 3097 3096 3095 3095 3094 3093 3092 3091 3090 3089 3088 3087 3086 3085 3084 3083 3081 3080 3079 3078 3076 3075 3074 3072 3071 3070 3068 3067 3065 3064 3063 3061 3060 3058 3057 3055 3054 3052 3051 3049 3047
3110 3110 3110 3110 3110 3110 3110 3110 3109 3109 3109 3108 3108 3108 3107 3106 3106 3105 3104 3103 3103 3102 3101 3100 3099 3098 3097 3096 3095 3095 3094 3093 3092 3091 3090 3089 3088 3087 3086 3085 3085 3083 3082 3081 3080 3079 3077 3076 3075 3073 3072 3071 3070 3068 3067 3065 3064 3063 3061 3060 3058 3057 3055 3054 3052 3050 3049 3047 3045
3109 3109 3109 3109 3109 3109 3109 3109 3108 3108 3108 3107 3107 3106 3106 3105 3105 3104 3103 3102 3101 3100 3099 3098 3097 3097 3096 3095 3094 3093 3092 3091 3091 3090 3089 3088 3087 3086 3085 3084 3083 3082 3081 3080 3078 3077 3076 3075 3073 3072 3070 3069 3068 3067 3065 3064 3063 3061 3060 3058 3057 3055 3053 3052 3050 3049 3047 3045 3044
3109 3109 3109 3109 3108 3108 3108 3108 3107 3107 3107 3106 3106 3105 3105 3104 3103 3102 3101 3100 3100 3099 3098 3097 3096 3095 3095 3094 3093 3092 3091 3090 3089 3088 3087 3086 3085 3084 3083 3082 3081 3080 3079 3078 3077 3076 3075 3073 3072 3070 3069 3068 3066 3065 3064 3063 3061 3060 3058 3056 3055 3053 3052 3050 3048 3047 3045 3043 3041
3108 3108 3108 3108 3107 3107 3107 3107 3106 3106 3105 3105 3105 3104 3103 3102 3102 3101 3100 3099 3098 3097 3096 3095 3095 3094 3093 3092 3091 3090 3090 3089 3088 3086 3085 3085 3083 3082 3081 3080 3080 3079 3078 3077 3076 3075 3073 3072 3071 3069 3068 3066 3065 3064 3062 3061 3059 3058 3056 3055 3053 3051 3050 3048 3047 3045 3043 3041 3040
3107 3107 3107 3107 3106 3106 3106 3106 3105 3105 3105 3104 3103 3103 3102 3101 3100 3099 3098 3097 3096 3095 3095 3094 3093 3092 3092 3091 3090 3089 3088 3087 3086 3085 3084 3083 3082 3080 3080 3079 3078 3077 3076 3075 3074 3073 3072 3071 3069 3068 3066 3065 3064 3062 3061 3059 3058 3056 3054 3053 3051 3050 3048 3046 3045 3043 3041 3040 3038
3106 3106 3106 3106 3105 3105 3105 3105 3104 3104 3103 3103 3102 3101 3100 3100 3099 3098 3097 3096 3095 3094 3094 3093 3092 3091 3090 3090 3089 3088 3087 3086 3085 3084 3082 3081 3080 3079 3078 3077 3076 3075 3074 3073 3073 3071 3070 3069 3068 3066 3065 3063 3062 3060 3059 3057 3056 3054 3053 3051 3050 3048 3046 3045 3043 3041 3039 3037 3035
3105 3105 3105 3105 3105 3104 3104 3103 3103 3103 3102 3101 3101 3100 3099 3098 3097 3096 3095 3095 3094 3093 3092 3091 3090 3090 3089 3088 3087 3086 3085 3084 3083 3082 3081 3080 3079 3077 3076 3075 3074 3073 3072 3072 3071 3070 3069 3067 3066 3065 3063 3062 3060 3059 3057 3056 3054 3053 3051 3050 3048 3046 3045 3043 3041 3039 3037 3035 3033
3104 3104 3104 3104 3103 3103 3103 3102 3102 3101 3101 3100 3100 3099 3098 3097 3096 3095 3094 3093 3092 3091 3091 3090 3089 3088 3087 3086 3086 3085 3084 3083 3082 3080 3080 3078 3077 3076 3075 3074 3073 3071 3070 3070 3069 3068 3067 3065 3064 3063 3061 3060 3059 3057 3056 3054 3053 3051 3049 3048 3046 3044 3043 3041 3039 3037 3035 3033 3030
3103 3103 3103 3102 3102 3102 3101 3101 3101 3100 3100 3099 3098 3097 3096 3095 3095 3094 3093 3092 3091 3090 3089 3089 3088 3087 3086 3085 3084 3083 3082 3081 3080 3079 3078 3077 3076 3075 3073 3072 3071 3070 3069 3068 3067 3066 3065 3064 3063 3061 3060 3058 3057 3055 3054 3053 3051 3049 3048 3046 3044 3042 3040 3039 3037 3035 3032 3030 3028
3102 3102 3102 3101 3101 3101 3100 3100 3100 3099 3098 3098 3097 3096 3095 3094 3093 3092 3091 3090 3090 3089 3088 3087 3086 3085 3085 3084 3083 3082 3081 3080 3079 3078 3077 3076 3075 3073 3072 3070 3069 3068 3067 3066 3065 3064 3064 3062 3061 3060 3058 3057 3055 3054 3053 3051 3049 3048 3046 3044 3042 3040 3039 3036 3035 3032 3030 3028 3025
3101 3100 3100 3100 3100 3100 3099 3099 3098 3098 3097 3096 3095 3095 3094 3093 3092 3091 3090 3089 3088 3087 3087 3086 3085 3084 3083 3082 3081 3080 3080 3079 3078 3077 3075 3074 3073 3072 3070 3069 3068 3066 3065 3064 3063 3063 3062 3061 3060 3058 3057 3055 3054 3053 3051 3050 3048 3046 3044 3042 3040 3039 3037 3035 3032 3030 3028 3025 3023
3100 3100 3099 3099 3099 3098 3098 3097 3097 3096 3095 3095 3094 3093 3092 3091 3090 3090 3089 3088 3087 3086 3085 3085 3084 3083 3082 3081 3080 3079 3078 3077 3076 3075 3074 3073 3072 3070 3069 3068 3066 3065 3064 3063 3062 3061 3060 3060 3058 3057 3055 3054 3053 3051 3050 3048 3046 3044 3042 3040 3039 3037 3035 3032 3030 3028 3025 3023 3021
3098 3098 3098 3098 3097 3097 3097 3096 3095 3095 3094 3093 3092 3092 3091 3090 3089 3088 3087 3087 3086 3085 3084 3083 3082 3082 3081 3080 3079 3078 3077 3076 3075 3074 3073 3072 3070 3069 3068 3066 3065 3064 3062 3061 3060 3060 3059 3058 3057 3056 3054 3053 3051 3050 3048 3046 3044 3042 3041 3039 3037 3035 3033 3030 3028 3025 3023 3021 3018
3097 3097 3097 3096 3096 3096 3095 3095 3094 3094 3093 3092 3091 3090 3090 3089 3088 3087 3086 3085 3085 3084 3083 3082 3081 3080 3080 3079 3078 3077 3076 3075 3074 3073 3072 3070 3069 3068 3066 3065 3064 3063 3061 3060 3059 3058 3057 3056 3055 3055 3053 3051 3050 3048 3046 3044 3042 3041 3039 3037 3035 3033 3031 3029 3026 3023 3021 3018 3016
3096 3096 3095 3095 3095 3095 3094 3093 3093 3092 3091 3090 3090 3089 3088 3087 3086 3086 3085 3084 3083 3083 3082 3081 3080 3079 3079 3078 3077 3076 3075 3074 3073 3071 3070 3069 3068 3066 3065 3064 3063 3061 3060 3059 3057 3056 3055 3055 3054 3053 3051 3050 3048 3046 3044 3043 3041 3039 3037 3035 3034 3031 3029 3027 3024 3021 3019 3016 3014
3095 3095 3094 3094 3094 3093 3093 3092 3091 3091 3090 3089 3089 3088 3087 3086 3085 3085 3084 3083 3082 3081 3080 3080 3079 3078 3077 3076 3076 3075 3074 3073 3071 3070 3069 3068 3067 3065 3064 3063 3061 3060 3059 3057 3056 3055 3054 3053 3052 3051 3050 3048 3046 3045 3043 3041 3039 3037 3035 3034 3032 3030 3027 3025 3022 3020 3017 3014 3011
3093 3093 3093 3093 3092 3092 3091 3091 3090 3090 3089 3088 3087 3086 3086 3085 3084 3083 3083 3082 3081 3080 3080 3079 3078 3077 3076 3075 3075 3074 3072 3071 3070 3069 3068 3067 3065 3064 3063 3062 3060 3059 3058 3056 3055 3054 3053 3052 3050 3049 3048 3046 3044 3043 3041 3039 3037 3035 3033 3032 3030 3028 3025 3023 3020 3018 3015 3013 3010